User: anonymous   Login
Location: Unspecified
(0.0000°N, 0.0000°E)
Time: 01:57:10
(UTC+00:00)
Language:

FAISAT-2V - Orbit

View from above orbital plane
View from above orbital plane
View from above satellite
View from above satellite

Ground track
Ground track

The orbit data is extracted from the following two-line orbital elements,

1 24954U 97052B   17147.56840285 +.00000029 +00000-0 +13594-4 0  9992
2 24954 082.9212 302.5433 0038179 253.8874 150.9896 13.79947861990770
Epoch (UTC): 27 May 2017 13:38:30
Eccentricity: 0.0038179
inclination: 82.9212°
perigee height: 936 km
apogee height: 992 km
right ascension of ascending node: 302.5433°
argument of perigee: 253.8874°
revolutions per day: 13.79947861
mean anomaly at epoch: 150.9896°
orbit number at epoch: 99077

The dashed part of the orbit path shows where the satellite is in the earth's shadow,  

DLR